Location: Cactus School
(34.5700°N, 118.0931°W)
Time: 18:05:54
(UTC-08:00)

OTV 5 (USA 277) - Visible Passes

Search period start: 19 November 2017 00:00
Search period end: 29 November 2017 00:00
Orbit: 404 x 417 km, 43.0° (Epoch: 07 September)

Date Brightness Start Highest point End Pass type
(mag) Time Alt. Az. Time Alt. Az. Time Alt. Az.
19 Nov ? 04:21:27 18° ENE 04:21:27 18° ENE 04:22:46 10° ENE visible
19 Nov ? 05:54:13 10° WNW 05:57:28 70° SSW 06:00:44 10° SE visible
20 Nov ? 05:05:42 50° NW 05:06:25 72° NNE 05:09:41 10° ESE visible
21 Nov ? 04:17:14 20° E 04:17:14 20° E 04:18:30 10° E visible
21 Nov ? 05:50:01 11° W 05:52:29 24° SW 05:55:12 10° SSE visible
22 Nov ? 05:01:37 40° SSW 05:01:37 40° SSW 05:04:37 10° SE visible
23 Nov ? 04:13:16 14° SE 04:13:16 14° SE 04:13:46 10° SE visible
24 Nov ? 04:57:46 12° SSW 04:57:46 12° SSW 04:58:22 10° S visible
28 Nov ? 18:09:08 10° S 18:10:16 13° SSE 18:10:16 13° SSE visible
